When you browse on this site, cookies collect data to enhance your experience and personalize the content and advertising you see.
Visit our Privacy Policy to learn more. By continuing to use the site, you agree to this use of cookies and data.
  • In Hungary
  • List of Countries
  • For 7 days
  • Water Temperature
  • Weather Map
  • News
  • Weather Widgets
  • user-avatar
    Login

    Hourly Weather Myasoedovo

    Today, 20 January, Monday

    Time Temperature Precipitation Wind Pressure Humidity
    00:00 -2°C° 0 mm 4 mps 751 mmHg 89%
    01:00 -1°C° 0 mm 4 mps 751 mmHg 89%
    02:00 -1°C° 0 mm 4 mps 751 mmHg 89%
    03:00 -1°C° 0 mm 5 mps 751 mmHg 90%
    04:00 -1°C° 0 mm 5 mps 750 mmHg 90%
    05:00 -1°C° 0 mm 5 mps 750 mmHg 91%
    06:00 -1°C° 0 mm 5 mps 750 mmHg 90%
    07:00 -1°C° 0 mm 5 mps 750 mmHg 90%
    08:00 -1°C° 0 mm 4 mps 750 mmHg 89%
    09:00 -1°C° 0 mm 5 mps 750 mmHg 88%
    10:00 -1°C° 0 mm 5 mps 750 mmHg 87%
    11:00 -1°C° 0 mm 5 mps 750 mmHg 87%
    12:00 -1°C° 0 mm 5 mps 750 mmHg 87%
    13:00 -1°C° 0 mm 5 mps 751 mmHg 87%
    14:00 -1°C° 0 mm 5 mps 751 mmHg 87%
    15:00 -1°C° 0 mm 5 mps 750 mmHg 87%
    16:00 -1°C° 0 mm 5 mps 750 mmHg 88%
    17:00 -1°C° 0 mm 5 mps 749 mmHg 88%
    18:00 -1°C° 0 mm 5 mps 749 mmHg 86%
    19:00 -1°C° 0 mm 5 mps 749 mmHg 84%
    20:00 -3°C° 0 mm 6 mps 749 mmHg 82%
    21:00 -3°C° 0 mm 6 mps 748 mmHg 82%
    22:00 -3°C° 0 mm 6 mps 747 mmHg 82%
    23:00 -3°C° 0 mm 6 mps 747 mmHg 82%

    Tomorrow, 21 January, Tuesday

    Time Temperature Precipitation Wind Pressure Humidity
    00:00 -3°C° 0 mm 6 mps 746 mmHg 82%
    01:00 -3°C° 0 mm 6 mps 746 mmHg 82%
    02:00 -3°C° 0 mm 6 mps 745 mmHg 81%
    03:00 -3°C° 0 mm 6 mps 744 mmHg 84%
    04:00 -3°C° 0 mm 6 mps 743 mmHg 86%
    05:00 -3°C° 0 mm 7 mps 742 mmHg 88%
    06:00 -2°C° 0.1 mm 7 mps 742 mmHg 89%
    07:00 -2°C° 0.1 mm 7 mps 741 mmHg 90%
    08:00 -1°C° 0.1 mm 7 mps 741 mmHg 91%
    09:00 -1°C° 0 mm 7 mps 740 mmHg 91%
    10:00 0°C° 0 mm 7 mps 739 mmHg 90%
    11:00 +2°C° 0 mm 7 mps 739 mmHg 90%
    12:00 +2°C° 0 mm 6 mps 738 mmHg 91%
    13:00 +2°C° 0 mm 6 mps 738 mmHg 91%
    14:00 +2°C° 0 mm 6 mps 737 mmHg 92%
    15:00 +2°C° 0.1 mm 6 mps 737 mmHg 91%
    16:00 +2°C° 0.1 mm 6 mps 736 mmHg 91%
    17:00 +3°C° 0.1 mm 6 mps 735 mmHg 90%
    18:00 +3°C° 0.3 mm 7 mps 734 mmHg 90%
    19:00 +3°C° 0.3 mm 7 mps 734 mmHg 89%
    20:00 +3°C° 0.3 mm 7 mps 734 mmHg 89%
    21:00 +3°C° 0.1 mm 7 mps 734 mmHg 86%
    22:00 +2°C° 0.1 mm 7 mps 734 mmHg 83%
    23:00 +2°C° 0.1 mm 7 mps 734 mmHg 80%

    Day after tomorrow, 22 January, Wednesday

    Time Temperature Precipitation Wind Pressure Humidity
    00:00 -1°C° 0 mm 6 mps 734 mmHg 80%
    01:00 -2°C° 0 mm 6 mps 735 mmHg 79%
    02:00 -2°C° 0 mm 5 mps 735 mmHg 79%
    03:00 -2°C° 0 mm 5 mps 734 mmHg 79%
    04:00 -2°C° 0 mm 5 mps 734 mmHg 79%
    05:00 -2°C° 0 mm 5 mps 734 mmHg 79%
    06:00 -4°C° 0 mm 5 mps 733 mmHg 81%
    07:00 -4°C° 0 mm 5 mps 733 mmHg 82%
    08:00 -4°C° 0 mm 5 mps 733 mmHg 84%
    09:00 -4°C° 0.1 mm 5 mps 732 mmHg 82%
    10:00 -3°C° 0.1 mm 6 mps 732 mmHg 79%
    11:00 -3°C° 0.1 mm 6 mps 732 mmHg 77%
    12:00 -3°C° 0.1 mm 6 mps 731 mmHg 76%
    13:00 -3°C° 0.1 mm 6 mps 731 mmHg 76%
    14:00 -2°C° 0.1 mm 5 mps 731 mmHg 75%
    15:00 -2°C° 0.3 mm 5 mps 731 mmHg 76%
    16:00 -4°C° 0.3 mm 5 mps 731 mmHg 77%
    17:00 -4°C° 0.3 mm 4 mps 731 mmHg 78%
    18:00 -4°C° 0 mm 4 mps 731 mmHg 79%
    19:00 -4°C° 0 mm 4 mps 732 mmHg 80%
    20:00 -4°C° 0 mm 4 mps 732 mmHg 82%
    21:00 -4°C° 0 mm 4 mps 733 mmHg 83%
    22:00 -4°C° 0 mm 4 mps 733 mmHg 84%
    23:00 -4°C° 0 mm 4 mps 733 mmHg 86%

    23 January, Thursday

    Time Temperature Precipitation Wind Pressure Humidity
    00:00 -5°C° 0 mm 5 mps 734 mmHg 83%
    01:00 -5°C° 0 mm 5 mps 734 mmHg 80%
    02:00 -5°C° 0 mm 6 mps 735 mmHg 77%
    03:00 -6°C° 0 mm 6 mps 735 mmHg 74%
    04:00 -8°C° 0 mm 6 mps 736 mmHg 71%
    05:00 -8°C° 0 mm 6 mps 736 mmHg 69%
    06:00 -8°C° 0 mm 6 mps 737 mmHg 67%
    07:00 -9°C° 0 mm 6 mps 737 mmHg 66%
    08:00 -9°C° 0 mm 6 mps 738 mmHg 65%
    09:00 -8°C° 0 mm 6 mps 738 mmHg 62%
    10:00 -8°C° 0 mm 7 mps 739 mmHg 59%
    11:00 -7°C° 0 mm 7 mps 739 mmHg 55%
    12:00 -7°C° 0 mm 7 mps 739 mmHg 57%
    13:00 -7°C° 0 mm 7 mps 740 mmHg 59%
    14:00 -7°C° 0 mm 7 mps 740 mmHg 61%
    15:00 -6°C° 0 mm 6 mps 740 mmHg 63%
    16:00 -7°C° 0 mm 5 mps 741 mmHg 65%
    17:00 -7°C° 0 mm 4 mps 741 mmHg 66%
    18:00 -7°C° 0 mm 4 mps 741 mmHg 68%
    19:00 -7°C° 0 mm 3 mps 742 mmHg 70%
    20:00 -7°C° 0 mm 3 mps 742 mmHg 72%
    21:00 -7°C° 0 mm 3 mps 742 mmHg 74%
    22:00 -7°C° 0 mm 3 mps 742 mmHg 76%
    23:00 -7°C° 0 mm 3 mps 742 mmHg 78%

    24 January, Friday

    Time Temperature Precipitation Wind Pressure Humidity
    00:00 -6°C° 0 mm 3 mps 741 mmHg 77%
    01:00 -7°C° 0 mm 4 mps 741 mmHg 76%
    02:00 -5°C° 0 mm 4 mps 740 mmHg 75%
    03:00 -6°C° 0.4 mm 5 mps 739 mmHg 82%
    04:00 -6°C° 0.4 mm 5 mps 738 mmHg 88%
    05:00 -6°C° 0.4 mm 6 mps 737 mmHg 94%
    06:00 -5°C° 0.5 mm 6 mps 736 mmHg 94%
    07:00 -5°C° 0.5 mm 6 mps 735 mmHg 94%
    08:00 -4°C° 0.5 mm 6 mps 734 mmHg 95%
    09:00 -3°C° 0.1 mm 6 mps 733 mmHg 94%
    10:00 0°C° 0.1 mm 5 mps 733 mmHg 94%
    11:00 +1°C° 0.1 mm 5 mps 733 mmHg 94%
    12:00 +1°C° 0.1 mm 6 mps 733 mmHg 91%
    13:00 +1°C° 0.1 mm 6 mps 733 mmHg 88%
    14:00 +1°C° 0.1 mm 6 mps 733 mmHg 85%
    15:00 -1°C° 0 mm 6 mps 733 mmHg 82%
    16:00 -1°C° 0 mm 5 mps 734 mmHg 79%
    17:00 -2°C° 0 mm 5 mps 735 mmHg 77%
    18:00 -2°C° 0 mm 5 mps 735 mmHg 76%
    19:00 -3°C° 0 mm 4 mps 735 mmHg 76%
    20:00 -3°C° 0 mm 4 mps 736 mmHg 75%
    21:00 -3°C° 0 mm 4 mps 736 mmHg 77%
    22:00 -4°C° 0 mm 4 mps 736 mmHg 78%
    23:00 -4°C° 0 mm 4 mps 736 mmHg 80%

    25 January, Saturday

    Time Temperature Precipitation Wind Pressure Humidity
    00:00 -4°C° 0 mm 4 mps 736 mmHg 83%
    01:00 -4°C° 0 mm 3 mps 736 mmHg 85%
    02:00 -4°C° 0 mm 3 mps 736 mmHg 88%
    03:00 -4°C° 0 mm 3 mps 736 mmHg 90%
    04:00 -4°C° 0 mm 3 mps 737 mmHg 92%
    05:00 -4°C° 0 mm 3 mps 737 mmHg 94%
    06:00 -2°C° 0 mm 3 mps 737 mmHg 95%
    07:00 -2°C° 0 mm 3 mps 737 mmHg 96%
    08:00 -1°C° 0 mm 3 mps 737 mmHg 97%
    09:00 -1°C° 0 mm 3 mps 737 mmHg 96%
    10:00 0°C° 0 mm 3 mps 738 mmHg 96%
    11:00 +1°C° 0 mm 3 mps 738 mmHg 96%
    12:00 0°C° 0 mm 4 mps 738 mmHg 95%
    13:00 0°C° 0 mm 4 mps 737 mmHg 94%
    14:00 0°C° 0 mm 4 mps 737 mmHg 93%
    15:00 0°C° 0 mm 4 mps 737 mmHg 93%
    16:00 +1°C° 0 mm 3 mps 737 mmHg 94%
    17:00 +1°C° 0 mm 3 mps 737 mmHg 95%
    18:00 +1°C° 0.1 mm 3 mps 737 mmHg 95%
    19:00 +1°C° 0.1 mm 3 mps 737 mmHg 95%
    20:00 +1°C° 0.1 mm 3 mps 737 mmHg 95%
    21:00 +1°C° 0.1 mm 3 mps 738 mmHg 95%
    22:00 +1°C° 0.1 mm 3 mps 738 mmHg 96%
    23:00 +1°C° 0.1 mm 3 mps 738 mmHg 96%
    Show more